Le nostre stazioni meteo in Italia

Pubblicità
Il mio iltempo24.it
Threave, Gran Bretagna (99090): Temperatura & dewpoint: 14.04.2018 19:00:00 - 20.04.2018 19:00:00 (BST)Threave, Gran Bretagna (99090): Temperatura -20cm & Temperatura -100cm: 14.04.2018 19:00:00 - 20.04.2018 19:00:00 (BST)Threave, Gran Bretagna (99090): precipitazioni: 14.04.2018 19:00:00 - 20.04.2018 19:00:00 (BST)
Data & Tempo tt [°C] td [°C] tt -20cm [°C] tt -100cm [°C] rr [mm]
20.04.2018 19:00:00 - - - - -
20.04.2018 18:00:00 13,4 8,2 - - 0,0
20.04.2018 17:00:00 13,9 8,1 - - 0,0
20.04.2018 16:00:00 14,1 8,2 - - 0,0
20.04.2018 15:00:00 14,2 8,9 - - 0,0
20.04.2018 14:00:00 13,7 9,1 - - 0,0
20.04.2018 13:00:00 13,4 9,5 - - 0,0
20.04.2018 12:00:00 12,4 8,2 - - 0,0
20.04.2018 11:00:00 11,3 8,7 - - 0,0
20.04.2018 10:00:00 9,5 9,0 9,9 7,7 0,0
20.04.2018 09:00:00 8,2 8,1 - - 0,0
20.04.2018 08:00:00 7,5 7,4 - - 0,0
20.04.2018 07:00:00 7,1 7,0 - - 0,0
20.04.2018 06:00:00 7,2 6,9 - - 0,0
20.04.2018 05:00:00 8,5 8,3 - - 0,0
20.04.2018 04:00:00 8,3 8,2 - - 0,0
20.04.2018 03:00:00 8,7 8,5 - - 0,0
20.04.2018 02:00:00 8,6 8,4 - - 0,0
20.04.2018 01:00:00 8,7 8,5 - - 0,0
20.04.2018 00:00:00 8,8 8,3 - - 0,0
19.04.2018 23:00:00 9,0 8,4 - - 0,0
19.04.2018 22:00:00 9,7 9,0 - - 0,0
19.04.2018 21:00:00 9,9 9,1 - - 0,0
19.04.2018 20:00:00 10,2 9,3 - - 0,0
19.04.2018 19:00:00 10,7 9,4 - - 0,0
19.04.2018 18:00:00 12,1 10,4 - - 0,0
19.04.2018 17:00:00 11,6 9,6 - - 0,0
19.04.2018 16:00:00 11,7 10,0 - - 0,0
19.04.2018 15:00:00 10,8 9,3 - - 0,0
19.04.2018 14:00:00 10,6 9,0 - - 0,0
19.04.2018 13:00:00 10,9 8,8 - - 0,0
19.04.2018 12:00:00 12,0 9,5 - - 0,0
19.04.2018 11:00:00 12,8 10,1 - - 0,0
19.04.2018 10:00:00 13,4 10,3 9,7 7,7 0,0
19.04.2018 09:00:00 11,0 9,6 - - 0,0
19.04.2018 08:00:00 - - - - 0,0
19.04.2018 07:00:00 - - - - -
19.04.2018 06:00:00 - - - - -
19.04.2018 05:00:00 - - - - -
19.04.2018 04:00:00 - - - - -
19.04.2018 03:00:00 - - - - -
19.04.2018 02:00:00 9,2 7,6 - - 0,0
19.04.2018 01:00:00 10,3 7,9 - - 0,0
19.04.2018 00:00:00 13,0 8,2 - - 0,0
18.04.2018 23:00:00 13,7 9,0 - - 0,0
18.04.2018 22:00:00 16,7 10,2 - - 0,0
18.04.2018 21:00:00 16,7 10,7 - - 0,0
18.04.2018 20:00:00 16,8 11,6 - - 0,0
18.04.2018 19:00:00 17,0 11,9 - - 0,0
18.04.2018 18:00:00 16,5 12,1 - - 0,0
18.04.2018 17:00:00 14,9 10,8 - - 0,0
18.04.2018 16:00:00 14,5 11,0 - - 0,0
18.04.2018 15:00:00 13,3 11,4 - - 0,0
18.04.2018 14:00:00 11,7 10,9 - - 0,0
18.04.2018 13:00:00 11,2 10,7 - - 0,0
18.04.2018 12:00:00 10,2 10,1 - - 0,0
18.04.2018 11:00:00 10,0 9,9 - - 0,0
18.04.2018 10:00:00 9,9 9,7 9,2 7,5 0,0
18.04.2018 09:00:00 10,1 9,8 - - 0,2
18.04.2018 08:00:00 10,7 10,1 - - 1,8
18.04.2018 07:00:00 10,8 10,4 - - 3,0
18.04.2018 06:00:00 10,5 9,9 - - 0,4
18.04.2018 05:00:00 10,8 9,8 - - 0,0
18.04.2018 04:00:00 9,5 9,2 - - 0,0
18.04.2018 03:00:00 9,4 8,9 - - 0,0
18.04.2018 02:00:00 9,4 8,8 - - 0,0
18.04.2018 01:00:00 9,4 8,8 - - 0,0
18.04.2018 00:00:00 9,5 8,4 - - 0,0
17.04.2018 23:00:00 9,5 8,3 - - 0,0
17.04.2018 22:00:00 9,3 8,2 - - 0,0
17.04.2018 21:00:00 9,2 8,0 - - 0,0
17.04.2018 20:00:00 9,6 7,9 - - 0,0
17.04.2018 19:00:00 10,3 8,3 - - 0,0
17.04.2018 18:00:00 11,0 8,3 - - 0,0
17.04.2018 17:00:00 11,4 8,4 - - 0,0
17.04.2018 16:00:00 11,4 8,2 - - 0,0
17.04.2018 15:00:00 11,8 9,1 - - 0,0
17.04.2018 14:00:00 10,8 8,9 - - 0,0
17.04.2018 13:00:00 9,8 8,9 - - 0,8
17.04.2018 12:00:00 9,2 8,5 - - 1,6
17.04.2018 11:00:00 9,0 8,3 - - 0,8
17.04.2018 10:00:00 8,9 8,3 8,9 7,2 2,2
17.04.2018 09:00:00 8,9 8,3 - - 2,6
17.04.2018 08:00:00 9,1 8,4 - - 3,4
17.04.2018 07:00:00 8,7 8,0 - - 2,6
17.04.2018 06:00:00 8,7 7,6 - - 0,8
17.04.2018 05:00:00 9,6 6,5 - - 0,2
17.04.2018 04:00:00 9,9 5,5 - - 0,0
17.04.2018 03:00:00 9,7 5,5 - - 0,0
17.04.2018 02:00:00 9,4 5,7 - - 0,0
17.04.2018 01:00:00 9,5 5,6 - - 0,0
17.04.2018 00:00:00 8,9 5,8 - - 0,4
16.04.2018 23:00:00 8,7 6,1 - - 0,6
16.04.2018 22:00:00 9,4 5,4 - - 0,2
16.04.2018 21:00:00 9,3 5,3 - - 0,6
16.04.2018 20:00:00 9,1 5,5 - - 0,0
16.04.2018 19:00:00 9,6 5,3 - - 0,0
16.04.2018 18:00:00 10,1 5,3 - - 0,0
16.04.2018 17:00:00 11,1 5,4 - - 0,0
16.04.2018 16:00:00 10,7 5,6 - - 0,0
16.04.2018 15:00:00 10,2 6,7 - - 0,0
16.04.2018 14:00:00 11,6 5,7 - - 0,0
16.04.2018 13:00:00 11,3 7,0 - - 0,0
16.04.2018 12:00:00 10,4 7,6 - - 0,0
16.04.2018 11:00:00 9,9 8,8 - - 0,0
16.04.2018 10:00:00 8,3 7,7 8,4 7,0 0,6
16.04.2018 09:00:00 8,7 8,0 - - 0,0
16.04.2018 08:00:00 8,2 7,9 - - 0,2
16.04.2018 07:00:00 7,6 7,2 - - 0,2
16.04.2018 06:00:00 7,9 7,3 - - 0,0
16.04.2018 05:00:00 7,9 7,4 - - 0,0
16.04.2018 04:00:00 8,0 7,6 - - 0,0
16.04.2018 03:00:00 8,3 7,9 - - 0,8
16.04.2018 02:00:00 8,6 7,9 - - 0,4
16.04.2018 01:00:00 9,6 8,2 - - 0,0
16.04.2018 00:00:00 9,7 8,4 - - 0,2
15.04.2018 23:00:00 10,2 8,1 - - 0,0
15.04.2018 22:00:00 10,5 7,9 - - 0,0
15.04.2018 21:00:00 10,7 8,1 - - 0,0
15.04.2018 20:00:00 10,5 8,4 - - 0,6
15.04.2018 19:00:00 11,7 8,3 - - 0,0
15.04.2018 18:00:00 12,2 8,3 - - 0,0
15.04.2018 17:00:00 12,2 9,4 - - 0,0
15.04.2018 16:00:00 11,6 8,5 - - 0,2
15.04.2018 15:00:00 12,2 9,0 - - 0,2
15.04.2018 14:00:00 12,7 8,1 - - 0,0
15.04.2018 13:00:00 12,9 8,0 - - 0,0
15.04.2018 12:00:00 13,1 8,6 - - 0,0
15.04.2018 11:00:00 12,4 7,8 - - 0,0
15.04.2018 10:00:00 11,5 7,8 8,0 6,9 0,0
15.04.2018 09:00:00 10,5 7,7 - - 0,0
15.04.2018 08:00:00 8,4 6,8 - - 0,0
15.04.2018 07:00:00 7,8 6,2 - - 0,0
15.04.2018 06:00:00 7,6 6,2 - - 0,0
15.04.2018 05:00:00 7,3 6,0 - - 0,0
15.04.2018 04:00:00 7,0 5,7 - - 0,0
15.04.2018 03:00:00 7,1 5,7 - - 0,0
15.04.2018 02:00:00 7,0 5,7 - - 0,0
15.04.2018 01:00:00 6,1 4,5 - - 0,0
15.04.2018 00:00:00 6,0 4,8 - - 0,0
14.04.2018 23:00:00 5,4 4,1 - - 0,0
14.04.2018 22:00:00 6,5 4,3 - - 0,0
14.04.2018 21:00:00 8,7 4,9 - - 0,0
14.04.2018 20:00:00 10,4 4,3 - - 0,0
14.04.2018 19:00:00 11,8 4,6 - - 0,0

tt = Temperatura
td = dewpoint
tt -20cm = Temperatura -20cm
tt -100cm = Temperatura -100cm
rr = precipitazioni

Stazioni seguenti

WeatherPro
AMSI
MeteoEarth